Location: Milano
(45.4670°N, 9.2000°E)
Time: 08:12:23
(UTC+02:00)

X-37B - Pass Details

Date: 03 August 2021
Orbit: 381 x 393 km, 45.0° (Epoch: 29 August)

Event Time Altitude Azimuth Distance (km) Brightness Sun altitude
Exits shadow 05:12:17 14° 231° (SW) 1,174 2.3 -9.4°
Maximum altitude 05:14:43 45° 161° (SSE) 531 1.1 -9.0°
Drops below altitude 10° 05:17:45 10° 87° (E) 1,399 4.4 -8.6°
Sets 05:19:51 0° 81° (E) 2,254 5.7 -8.3°
